星链-37160(STARLINK-37160)

导读

STARLINK-37160(NORAD编号68282)是美国SpaceX公司星链(Starlink)项目的低轨卫星,于2024年12月8日发射升空。该卫星归属Starlink V1.0平台,运行在倾角43.001°近地轨道,近地点约355公里,远地点约357公里,轨道周期约91.66分钟。作为星链全球卫星互联网星座的组成部分,它旨在为全球提供高速低延迟互联网服务,尤其覆盖偏远地区,同时可支持军事、航空等领域通信需求,截至2026年2月已在轨飞行超447天。

基本信息
目录编号:
68282
目录名称:
STARLINK-37160
国际标识:
2026-055W
轨道中心:
EARTH
卫星名称:
星链-37160
卫星全名:
星链-37160(STARLINK-37160)
卫星状态:
在轨 (已飞行178 天)
发射日期:
2026-03-19 UTC
国别 :
美国 (US)
星等 :
--
该卫星已列入 空间交会检测服务 Space Conjunction Data Service (SCDS) ,当前飞行风险评估等级: 无高风险
轨道信息
数据来源 国际轨道数据
星历时间: 2026-09-13T08:17:37+0800
11小时前
查看轨道信息
半长轴: 6840.831km
偏心率: 0.0001705
轨道倾角: 53.160°
近地点辐角 100.725°
升交点赤经 164.694°
平近点角 259.395°
近地点: 461.527km
远地点: 463.861km
周期: 93.848分钟
每日圈数: 15.344033
详细信息
固有亮度:
5
最大亮度:
2.5
卫星平台:
Starlink V1.0
覆盖范围:
全球
运营商:
太空探索技术公司
运营商所在国:
美国
制造商(研发单位):
太空探索技术公司
制造商所在国:
美国
使用方式:
暂无
卫星简介
Starlink 计划是 SpaceX 推出的全球卫星互联网项目,通过发射低轨道卫星,为全球尤其是偏远地区提供高速、低延迟的互联网服务。自 2019 年起,Starlink 已部署数千颗卫星,旨在缩小全球数字鸿沟,推动互联网普及。该项目还为军事、航空等行业提供通信支持,带来广泛经济效益。
2D轨道图
3D轨道图
轨道高度分析图
轨道倾角分析图
轨道综合分析图
查看轨道综合分析图
与全量物体交会距离演化趋势
与全量物体交会风险概率演化趋势